EW3012 Weather Reports


time (UTC)temp
F
wind
direction
speed
knots
gust
knots
rain 1hr
in
rain 24hr
in
rain mn
in
humidity
%
barometer
mb
20260507152754 71 164 1.7 5.2 0.00 0.00 0.00 53 1014.7
20260507152253 72 86 0.0 3.5 0.00 0.00 0.00 53 1014.5
20260507151754 72 113 0.0 5.2 0.00 0.00 0.00 53 1014.5
20260507151253 72 114 1.7 5.2 0.00 0.00 0.00 53 1014.7
20260507151222 72 134 0.0 1.7 0.00 0.00 0.00 53 1014.7
20260507150255 72 113 0.0 2.6 0.00 0.00 0.00 54 1014.7
20260507145753 73 179 0.9 4.3 0.00 0.00 0.00 52 1014.7
20260507145253 73 131 0.0 4.3 0.00 0.00 0.00 53 1014.5
20260507144753 73 138 0.0 3.5 0.00 0.00 0.00 52 1014.7
20260507144254 73 149 0.0 2.6 0.00 0.00 0.00 53 1014.7
20260507143753 74 59 0.0 1.7 0.00 0.00 0.00 52 1014.7
20260507143255 74 117 0.0 3.5 0.00 0.00 0.00 52 1014.8
20260507142752 74 149 0.0 3.5 0.00 0.00 0.00 53 1014.8
20260507142254 73 151 0.0 6.1 0.00 0.00 0.00 51 1014.8
20260507141752 73 157 1.7 6.1 0.00 0.00 0.00 52 1014.9
20260507141713 73 142 0.0 8.7 0.00 0.00 0.00 52 1014.8
20260507140753 74 34 1.7 8.7 0.00 0.00 0.00 51 1014.8
20260507140251 75 185 0.0 0.9 0.00 0.00 0.00 50 1014.8
20260507135749 75 199 0.0 6.1 0.00 0.00 0.00 52 1014.8
20260507135250 74 235 2.6 6.1 0.00 0.00 0.00 51 1014.8
20260507134748 74 137 0.9 7.8 0.00 0.00 0.00 50 1014.8
20260507134249 74 128 0.0 7.8 0.00 0.00 0.00 52 1014.9
20260507133749 74 130 0.9 4.3 0.00 0.00 0.00 51 1014.9
20260507133248 74 93 0.0 4.3 0.00 0.00 0.00 51 1015.0
20260507132749 74 141 0.9 4.3 0.00 0.00 0.00 51 1014.8
20260507132245 75 78 0.0 6.1 0.00 0.00 0.00 48 1014.9
20260507131746 75 245 0.0 6.1 0.00 0.00 0.00 50 1014.9
20260507131245 75 97 0.0 6.1 0.00 0.00 0.00 50 1015.0
20260507130744 75 233 0.9 6.1 0.00 0.00 0.00 48 1015.1
20260507130242 75 151 0.0 8.7 0.00 0.00 0.00 50 1015.0
20260507125747 75 155 0.0 8.7 0.00 0.00 0.00 48 1015.1
20260507125241 75 149 0.0 4.3 0.00 0.00 0.00 48 1015.1
20260507124741 74 78 0.9 6.1 0.00 0.00 0.00 50 1015.1
20260507124240 74 114 0.9 6.1 0.00 0.00 0.00 51 1015.2
20260507123741 75 134 1.7 6.1 0.00 0.00 0.00 50 1015.1
20260507123238 74 182 1.7 6.1 0.00 0.00 0.00 50 1015.2
20260507122739 74 147 0.0 8.7 0.00 0.00 0.00 50 1015.2
20260507122237 74 176 2.6 8.7 0.00 0.00 0.00 49 1015.3
20260507121738 74 221 0.0 4.3 0.00 0.00 0.00 49 1015.4
20260507121239 74 151 0.0 7.8 0.00 0.00 0.00 50 1015.4
20260507120738 74 109 0.9 7.8 0.00 0.00 0.00 50 1015.4
20260507120723 74 180 0.9 7.8 0.00 0.00 0.00 51 1015.4
20260507115736 73 96 1.7 7.8 0.00 0.00 0.00 50 1015.4
20260507115702 73 137 0.0 8.7 0.00 0.00 0.00 53 1015.5
20260507114733 73 161 1.7 8.7 0.00 0.00 0.00 51 1015.5
20260507114233 73 114 0.9 6.1 0.00 0.00 0.00 51 1015.5
20260507113733 73 145 0.9 4.3 0.00 0.00 0.00 50 1015.6
20260507113231 74 118 1.7 7.8 0.00 0.00 0.00 49 1015.5
20260507112733 73 159 0.0 7.8 0.00 0.00 0.00 50 1015.5
20260507112232 74 59 0.9 6.1 0.00 0.00 0.00 50 1015.4
20260507111733 73 233 0.0 6.1 0.00 0.00 0.00 49 1015.4
20260507111232 73 94 0.0 5.2 0.00 0.00 0.00 48 1015.4
20260507110732 74 141 0.9 5.2 0.00 0.00 0.00 48 1015.5
20260507110232 73 144 0.0 5.2 0.00 0.00 0.00 48 1015.5
20260507105733 73 131 0.9 7.8 0.00 0.00 0.00 50 1015.5
20260507105232 73 182 1.7 7.8 0.00 0.00 0.00 49 1015.4
20260507104734 73 87 0.0 7.8 0.00 0.00 0.00 50 1015.5
20260507104232 72 172 0.9 9.6 0.00 0.00 0.00 50 1015.6
20260507103731 73 125 1.7 9.6 0.00 0.00 0.00 49 1015.6
20260507103653 73 117 0.0 8.7 0.00 0.00 0.00 52 1015.6
20260507102731 72 138 1.7 8.7 0.00 0.00 0.00 49 1015.7
20260507102650 72 127 0.9 8.7 0.00 0.00 0.00 48 1015.6
20260507102117 72 141 1.7 8.7 0.00 0.00 0.00 49 1015.7
20260507102110 71 138 0.9 8.7 0.00 0.00 0.00 51 1015.7
20260507101910 72 128 0.9 8.7 0.00 0.00 0.00 50 1015.7
20260507100229 71 140 2.6 9.6 0.00 0.00 0.00 48 1015.8
20260507095731 71 121 5.2 9.6 0.00 0.00 0.00 50 1015.8
20260507095230 71 137 3.5 9.6 0.00 0.00 0.00 47 1015.8
20260507094726 71 59 1.7 8.7 0.00 0.00 0.00 49 1015.8
20260507094223 72 49 0.9 8.7 0.00 0.00 0.00 48 1015.8
20260507094158 72 142 2.6 8.7 0.00 0.00 0.00 50 1015.8
20260507093225 71 138 3.5 8.7 0.00 0.00 0.00 48 1015.9
20260507092726 72 107 0.9 9.6 0.00 0.00 0.00 47 1015.9
20260507092227 72 109 3.5 9.6 0.00 0.00 0.00 47 1015.9
20260507092153 72 102 1.7 8.7 0.00 0.00 0.00 50 1015.9
20260507091225 72 141 0.0 5.2 0.00 0.00 0.00 49 1015.9
20260507090723 72 124 0.0 5.2 0.00 0.00 0.00 46 1015.7
20260507090220 72 265 0.9 4.3 0.00 0.00 0.00 46 1015.9
20260507085721 71 121 0.9 5.2 0.00 0.00 0.00 47 1015.8
20260507085219 72 114 0.9 5.2 0.00 0.00 0.00 44 1015.8
20260507084718 72 128 1.7 5.2 0.00 0.00 0.00 46 1015.9
20260507084220 72 172 0.9 7.8 0.00 0.00 0.00 49 1015.9
20260507083720 72 133 2.6 7.8 0.00 0.00 0.00 48 1015.9
20260507083216 72 145 2.6 6.1 0.00 0.00 0.00 44 1015.9
20260507083136 72 155 0.9 5.2 0.00 0.00 0.00 47 1015.9
20260507082217 72 140 1.7 5.2 0.00 0.00 0.00 45 1015.8
20260507081714 72 135 0.0 0.0 0.00 0.00 0.00 45 1015.9
20260507081637 71 130 0.0 0.9 0.00 0.00 0.00 48 1015.8
20260507080713 70 124 0.0 2.6 0.00 0.00 0.00 46 1015.7
20260507080214 69 155 0.0 5.2 0.00 0.00 0.00 47 1015.8
20260507075713 69 68 3.5 5.2 0.00 0.00 0.00 46 1015.6
20260507075639 69 137 1.7 4.3 0.00 0.00 0.00 48 1015.7
20260507074711 69 92 1.7 4.3 0.00 0.00 0.00 46 1015.8
20260507074214 69 157 0.0 0.0 0.00 0.00 0.00 48 1015.9
20260507073710 69 123 0.0 0.0 0.00 0.00 0.00 46 1015.9
20260507073633 69 63 0.0 0.0 0.00 0.00 0.00 43 1015.9
20260507073147 70 131 0.0 0.0 0.00 0.00 0.00 43 1015.9
20260507072212 69 182 0.0 0.0 0.00 0.00 0.00 43 1015.9
20260507071707 70 209 0.0 0.0 0.00 0.00 0.00 44 1015.9
20260507071205 70 82 0.0 0.0 0.00 0.00 0.00 43 1015.8
20260507071102 68 151 0.0 0.0 0.00 0.00 0.00 47 1015.9
20260507070856 70 228 0.0 0.0 0.00 0.00 0.00 44 1015.8
20260507065704 68 255 0.0 0.0 0.00 0.00 0.00 55 1015.9
20260507065204 67 106 0.0 0.0 0.00 0.00 0.00 58 1015.9
20260507064702 67 158 0.0 0.0 0.00 0.00 0.00 55 1015.9
20260507064623 67 144 0.0 0.0 0.00 0.00 0.00 59 1015.8
20260507063703 67 145 0.0 0.0 0.00 0.00 0.00 62 1015.9
20260507063204 67 78 0.0 0.0 0.00 0.00 0.00 66 1015.8
20260507062703 67 336 0.0 0.0 0.00 0.00 0.00 68 1015.9
20260507062203 67 279 0.0 0.0 0.00 0.00 0.00 68 1015.8
20260507061702 66 261 0.0 0.0 0.00 0.00 0.00 72 1015.8
20260507061633 65 264 0.0 0.0 0.00 0.00 0.00 72 1015.8
20260507060703 63 264 0.0 0.0 0.00 0.00 0.00 74 1015.9
20260507060202 62 264 0.0 0.0 0.00 0.00 0.00 77 1016.0
20260507055704 61 264 0.0 0.0 0.00 0.00 0.00 78 1016.0
20260507055201 60 264 0.0 0.0 0.00 0.00 0.00 77 1016.0
20260507054703 61 264 0.0 0.0 0.00 0.00 0.00 79 1015.9
20260507054202 60 261 0.0 0.0 0.00 0.00 0.00 80 1016.0
20260507054132 60 262 0.0 0.0 0.00 0.00 0.00 81 1015.9
20260507053201 58 261 0.0 0.0 0.00 0.00 0.00 83 1015.9
20260507052700 57 262 0.0 0.0 0.00 0.00 0.00 85 1015.9
20260507052201 56 274 0.0 0.0 0.00 0.00 0.00 87 1016.0
20260507051700 55 275 0.0 0.0 0.00 0.00 0.00 87 1016.0
20260507051204 53 275 0.0 0.0 0.00 0.00 0.00 88 1016.0
20260507051126 51 274 0.0 0.0 0.00 0.00 0.00 87 1016.0
20260507050200 50 268 0.0 0.0 0.00 0.00 0.00 87 1016.1
20260507045701 50 268 0.0 0.0 0.00 0.00 0.00 86 1016.1
20260507045158 49 266 0.0 0.0 0.00 0.00 0.00 86 1016.1
20260507044657 48 268 0.0 0.0 0.00 0.00 0.00 85 1016.2
20260507044616 47 266 0.0 0.0 0.00 0.00 0.00 85 1016.2
20260507043656 47 266 0.0 0.0 0.00 0.00 0.00 84 1016.2
20260507043154 46 269 0.0 0.0 0.00 0.00 0.00 84 1016.2
20260507043125 46 274 0.0 0.0 0.00 0.00 0.00 84 1016.2
20260507042155 45 252 0.0 0.0 0.00 0.00 0.00 84 1016.1
20260507041653 45 252 0.0 0.0 0.00 0.00 0.00 83 1016.1
20260507041151 45 283 0.0 2.6 0.00 0.00 0.00 83 1016.0
20260507041007 44 282 0.0 0.9 0.00 0.00 0.00 83 1016.1
20260507040821 45 282 0.0 3.5 0.00 0.00 0.00 83 1016.1
20260507040334 44 266 0.9 3.5 0.00 0.00 0.00 83 1016.1
20260507035144 44 283 0.0 1.7 0.00 0.00 0.00 83 1016.0
20260507034643 44 252 0.0 4.3 0.00 0.01 0.00 83 1016.1
20260507034143 44 271 0.9 4.3 0.00 0.01 0.00 82 1016.0
20260507033643 44 221 0.0 2.6 0.00 0.01 0.00 82 1016.0
20260507033141 43 293 0.9 2.6 0.00 0.01 0.00 83 1016.1
20260507032641 43 243 0.0 5.2 0.00 0.01 0.00 83 1016.1
20260507032139 44 250 1.7 5.2 0.00 0.01 0.00 82 1015.9
20260507031641 43 276 1.7 4.3 0.00 0.01 0.00 82 1016.0
20260507031151 43 261 1.7 3.5 0.00 0.01 0.00 82 1015.9
20260507030639 43 238 0.0 2.6 0.00 0.01 0.00 83 1016.0
20260507030139 43 252 1.7 5.2 0.00 0.01 0.00 82 1015.9
20260507025640 43 257 2.6 5.2 0.00 0.01 0.00 82 1015.9
20260507025139 42 226 1.7 4.3 0.00 0.01 0.00 83 1016.0
20260507024637 42 321 0.0 1.7 0.00 0.01 0.00 83 1015.9
20260507024610 42 259 0.0 2.6 0.00 0.01 0.00 83 1015.9
20260507023652 42 259 0.0 3.5 0.00 0.01 0.00 82 1015.9
20260507023138 42 262 0.9 3.5 0.00 0.01 0.00 83 1016.0
20260507022639 42 258 0.0 0.0 0.00 0.01 0.00 83 1015.9
20260507022151 41 78 0.0 0.0 0.00 0.01 0.00 84 1016.0
20260507022006 42 78 0.0 0.0 0.00 0.01 0.00 84 1016.0
20260507021813 41 78 0.0 0.0 0.00 0.01 0.00 84 1015.9
20260507021329 42 78 0.0 0.0 0.00 0.01 0.00 84 1016.0
20260507020602 42 78 0.0 0.0 0.00 0.01 0.00 84 1016.0
20260507015637 42 78 0.0 0.0 0.00 0.01 0.00 84 1016.1
20260507015137 43 227 0.0 3.5 0.00 0.01 0.00 84 1016.1
20260507014652 43 226 0.0 3.5 0.00 0.01 0.00 83 1016.1
20260507014137 43 276 0.0 3.5 0.00 0.01 0.00 84 1016.2
20260507014100 44 241 0.9 4.3 0.00 0.01 0.00 83 1016.1
20260507013135 44 269 0.0 4.3 0.00 0.01 0.00 82 1016.2
20260507012636 44 272 0.0 3.5 0.00 0.01 0.00 83 1016.2
20260507012221 44 247 0.0 4.3 0.00 0.01 0.00 82 1016.2
20260507012155 43 251 0.9 3.5 0.00 0.01 0.00 83 1016.2
20260507011704 43 227 0.9 2.6 0.00 0.01 0.00 83 1016.2
20260507011138 44 247 0.0 3.5 0.00 0.01 0.00 83 1016.2
20260507010831 44 281 0.9 3.5 0.00 0.01 0.00 82 1016.2
20260507005636 44 268 0.9 4.3 0.00 0.01 0.00 82 1016.1
20260507005136 43 269 0.9 3.5 0.00 0.01 0.00 82 1016.1
20260507004635 42 266 0.0 0.0 0.00 0.01 0.00 84 1016.0
20260507004136 43 265 0.0 0.0 0.00 0.01 0.00 83 1016.0
20260507003634 43 266 0.0 0.0 0.00 0.01 0.00 84 1015.9
20260507003135 43 266 0.0 0.0 0.00 0.01 0.00 84 1016.0
20260507002636 43 266 0.0 0.0 0.00 0.01 0.00 84 1016.0
20260507002133 43 71 0.0 0.0 0.00 0.01 0.00 84 1016.0
20260507002056 43 71 0.0 0.0 0.00 0.01 0.00 84 1016.0
20260507001136 43 71 0.0 0.0 0.00 0.01 0.00 85 1016.0
20260507000632 43 71 0.0 0.0 0.00 0.01 0.00 85 1016.0
20260507000137 43 71 0.0 0.0 0.00 0.01 0.00 85 1016.1
20260506235633 44 71 0.0 0.0 0.00 0.01 0.00 85 1016.1
20260506235136 44 71 0.0 0.0 0.00 0.01 0.00 85 1016.1
20260506234632 44 71 0.0 0.0 0.00 0.01 0.00 85 1016.2
20260506234135 44 71 0.0 0.0 0.00 0.01 0.00 85 1016.2
20260506233632 45 71 0.0 0.0 0.00 0.01 0.00 85 1016.2
20260506233134 45 71 0.0 0.0 0.00 0.01 0.00 85 1016.2
20260506232632 46 71 0.0 0.0 0.00 0.01 0.00 84 1016.3
20260506232134 46 259 0.0 0.0 0.00 0.01 0.00 83 1016.2
20260506232039 45 285 0.0 0.0 0.00 0.01 0.00 84 1016.2
20260506231827 45 252 0.0 0.0 0.00 0.01 0.00 83 1016.3
20260506230632 45 283 0.0 0.0 0.00 0.01 0.00 85 1016.2
20260506230131 45 283 0.0 0.0 0.00 0.01 0.00 85 1016.3
20260506230048 45 283 0.0 0.0 0.00 0.01 0.00 85 1016.3
20260506225132 45 283 0.0 0.0 0.00 0.01 0.00 84 1016.4
20260506224630 46 283 0.0 0.0 0.00 0.01 0.00 84 1016.4
20260506224131 46 185 0.0 0.0 0.00 0.01 0.00 84 1016.4
20260506223630 45 281 0.0 0.0 0.00 0.01 0.00 85 1016.3
20260506223130 45 251 0.0 0.0 0.00 0.01 0.00 85 1016.3
20260506222630 45 251 0.0 0.0 0.00 0.01 0.00 85 1016.3
20260506222555 46 251 0.0 0.0 0.00 0.01 0.00 86 1016.2
20260506221631 46 251 0.0 0.0 0.00 0.01 0.00 86 1016.3
20260506221131 46 251 0.0 0.0 0.00 0.01 0.00 86 1016.3
20260506220631 46 251 0.0 0.0 0.00 0.01 0.00 86 1016.3
20260506220130 47 251 0.0 0.0 0.00 0.01 0.00 86 1016.3
20260506220050 47 251 0.0 0.0 0.00 0.01 0.00 86 1016.3
20260506215129 47 251 0.0 0.0 0.00 0.01 0.00 86 1016.3
20260506214631 47 252 0.0 0.0 0.00 0.01 0.00 86 1016.3
20260506214129 47 252 0.0 0.0 0.00 0.01 0.00 86 1016.3
20260506214052 47 252 0.0 0.0 0.00 0.01 0.00 87 1016.4
20260506213129 47 252 0.0 0.0 0.00 0.01 0.00 87 1016.2
20260506212630 47 252 0.0 0.0 0.00 0.01 0.00 87 1016.3
20260506212554 48 252 0.0 0.0 0.00 0.01 0.00 87 1016.2
20260506211630 48 252 0.0 0.0 0.00 0.01 0.00 87 1016.2
20260506211129 48 252 0.0 0.0 0.00 0.01 0.00 87 1016.2
20260506211100 48 276 0.0 0.0 0.00 0.01 0.00 87 1016.2
20260506210128 49 276 0.0 0.0 0.00 0.01 0.00 87 1016.2
20260506205628 49 276 0.0 0.0 0.00 0.01 0.01 87 1016.2
20260506205131 49 275 0.0 0.0 0.00 0.01 0.01 87 1016.2
20260506204629 49 275 0.0 0.0 0.00 0.01 0.01 87 1016.2
20260506204129 49 226 0.0 0.0 0.00 0.01 0.01 87 1016.2
20260506203628 49 192 0.0 0.0 0.00 0.01 0.01 87 1016.2
20260506203127 50 192 0.0 0.0 0.00 0.01 0.01 87 1016.2
20260506202628 50 190 0.0 0.0 0.00 0.01 0.01 87 1016.2
20260506202127 50 192 0.0 0.0 0.00 0.01 0.01 87 1016.1
20260506201628 50 286 0.0 0.0 0.00 0.01 0.01 87 1016.1
20260506201128 51 251 0.0 0.0 0.00 0.01 0.01 87 1016.1
20260506200630 51 251 0.0 0.0 0.00 0.01 0.01 87 1016.1
20260506200127 51 251 0.0 0.0 0.00 0.01 0.01 87 1016.1
20260506195627 51 251 0.0 0.0 0.00 0.01 0.01 87 1016.1
20260506195126 51 214 0.0 0.0 0.00 0.01 0.01 87 1016.1
20260506194627 51 214 0.0 0.0 0.00 0.01 0.01 87 1016.1
20260506194126 52 288 0.0 0.0 0.00 0.01 0.01 86 1016.0
20260506194058 52 140 0.0 0.0 0.00 0.01 0.01 86 1016.0
20260506193130 53 141 0.0 0.0 0.00 0.01 0.01 86 1016.0
20260506192626 53 141 0.0 0.0 0.00 0.01 0.01 85 1016.0
20260506192129 54 137 0.0 0.0 0.00 0.01 0.01 84 1016.0
20260506191625 55 261 0.0 0.0 0.00 0.01 0.01 84 1015.8
20260506191126 55 274 0.0 0.0 0.00 0.01 0.01 84 1015.9
20260506190626 55 274 0.0 0.0 0.00 0.01 0.01 84 1015.9
20260506190125 54 268 0.0 0.0 0.00 0.01 0.01 85 1015.7
20260506185627 54 197 0.0 0.0 0.00 0.01 0.01 85 1015.7
20260506185125 54 149 0.0 0.0 0.00 0.01 0.01 84 1015.5
20260506184626 54 148 0.0 0.0 0.00 0.01 0.01 84 1015.5
20260506184455 55 149 0.0 0.0 0.00 0.01 0.01 82 1015.4
20260506184306 54 149 0.0 0.0 0.00 0.01 0.01 83 1015.5
20260506183815 55 149 0.0 0.0 0.00 0.01 0.01 82 1015.4
20260506182625 56 149 0.0 0.0 0.00 0.01 0.01 81 1015.3
20260506182125 56 149 0.0 0.0 0.00 0.01 0.01 81 1015.3
20260506181624 56 102 0.0 0.0 0.00 0.01 0.01 80 1015.1
20260506181125 57 102 0.0 0.0 0.00 0.01 0.01 78 1015.0
20260506180626 58 102 0.0 0.0 0.00 0.01 0.01 76 1014.9
20260506180127 58 102 0.0 0.0 0.00 0.01 0.01 75 1014.8
20260506175624 58 102 0.0 0.0 0.00 0.01 0.01 74 1014.8
20260506175127 59 102 0.0 0.0 0.00 0.01 0.01 74 1014.5
20260506174624 60 102 0.0 0.0 0.00 0.01 0.01 72 1014.5
20260506174123 60 102 0.0 0.0 0.00 0.01 0.01 71 1014.4
20260506174042 61 102 0.0 0.0 0.00 0.01 0.01 68 1014.4
20260506173124 62 102 0.0 0.0 0.00 0.01 0.01 68 1014.3
20260506172625 62 102 0.0 0.0 0.00 0.01 0.01 67 1014.3
20260506172123 63 102 0.0 0.0 0.00 0.01 0.01 66 1014.3
20260506171626 64 102 0.0 0.0 0.00 0.01 0.01 65 1014.2
20260506171123 64 102 0.0 0.0 0.00 0.01 0.01 64 1014.2
20260506171017 66 102 0.0 0.0 0.00 0.01 0.01 62 1014.1
20260506170819 65 102 0.0 0.0 0.00 0.01 0.01 63 1014.2
20260506170038 67 102 0.0 0.0 0.00 0.01 0.01 61 1014.0
20260506165124 67 102 0.0 0.0 0.00 0.01 0.01 60 1014.1
20260506164622 68 111 0.0 0.0 0.00 0.01 0.01 61 1014.0
20260506164122 68 124 0.0 0.0 0.00 0.01 0.01 58 1013.9
20260506164021 70 134 0.0 2.6 0.00 0.01 0.01 58 1013.9
20260506163815 69 147 0.0 2.6 0.00 0.01 0.01 60 1013.9
20260506162623 70 164 0.0 3.5 0.00 0.01 0.01 58 1013.9
20260506162123 71 128 0.0 3.5 0.00 0.01 0.01 55 1013.7
20260506161622 71 131 0.0 0.0 0.00 0.01 0.01 55 1013.7
20260506161123 71 134 0.0 1.7 0.00 0.01 0.01 52 1013.7
20260506160622 72 123 0.0 1.7 0.00 0.01 0.01 52 1013.6
20260506160122 72 140 0.0 0.9 0.00 0.01 0.01 51 1013.6
20260506155624 72 224 0.0 4.3 0.00 0.01 0.01 51 1013.5
20260506155555 73 52 0.9 5.2 0.00 0.01 0.01 51 1013.5
20260506154623 73 224 0.0 5.2 0.00 0.01 0.01 51 1013.5
20260506154119 73 121 0.9 4.3 0.00 0.01 0.01 50 1013.7
20260506153618 73 94 0.0 4.3 0.00 0.01 0.01 50 1013.7
20260506153120 74 135 1.7 4.3 0.00 0.01 0.01 49 1013.8